Regional Weather Roundup
Issued by NWS Binghamton, NY

Home | Current Version | Previous Version | Text Only | Print | Product List | Glossary On
Versions: 1 2 3 4 5 6 7 8 9 10 11 12 13 14 15 16 17 18 19 20 21 22 23 24 25 26 27 28 29 30 31 32 33 34 35 36 37 38 39 40 41 42 43 44 45 46 47 48 49 50
000
ASUS41 KBGM 072210
RWRBGM

REGIONAL WEATHER ROUNDUP
NATIONAL WEATHER SERVICE BINGHAMTON NY
500 PM EST SUN FEB 07 2016

Note: "fair" indicates few or no clouds below 12,000 feet with no
significant weather and/or obstructions to visibility.

* = Station(s) that does not report precipitation, such as rain,
snow, etc, also no thunder or fog.

!NYZ009-015>018-022>025-036-037-044>046-055>057-062-072300
...CENTRAL NEW YORK...

CITY           SKY/WX    TMP DP  RH WIND       PRES   REMARKS
BINGHAMTON     CLEAR     40  20  44 SW3       29.95S
CORTLAND       FAIR      41  23  48 S5        29.96F
DANSVILLE      PTCLDY    47  26  44 SE6       29.93F
ELMIRA         CLEAR     44  24  45 NW5       29.96S
ITHACA         CLEAR     42  21  43 SE6       29.97F
HORNELL        PTCLDY    43  27  52 SE5       29.96F
MONTICELLO     CLEAR     41  19  42 SE3       29.99F
PENN YAN       CLEAR     41  26  55 SE7       29.96S
ROME           CLEAR     41  23  48 E6        30.02F
SIDNEY         CLEAR     43  21  42 CALM      29.97F
SYRACUSE       MOCLDY    39  24  55 NE8       29.99F WCI  33
$$

!PAZ038>040-043-044-047-048-072-072300
...NORTHEAST PENNSYLVANIA...

CITY           SKY/WX    TMP DP  RH WIND       PRES   REMARKS
HAZLETON       CLEAR     43  23  45 CALM      29.99R
SCRANTON       CLEAR     46  23  40 CALM      29.97S
$$
&&
KEY
WCI = WIND CHILL INDEX
VSB = VISIBILITY
HX  = HEAT INDEX
$$



USA.gov is the U.S. government's official web portal to all federal, state and local government web resources and services.